Tracking 19636 objects as of 24-May-2019
HD Live streaming from Space Station
objects crossing your sky now

CHUANG XIN 1 (CZ-1)

Track CHUANG XIN 1 (CZ-1) now!
10-day predictions
CHUANG XIN 1 (CZ-1) is classified as:


NORAD ID: 28058
Int'l Code: 2003-049B
Perigee: 732.9 km
Apogee: 752.5 km
Inclination: 98.7 °
Period: 99.5 minutes
Semi major axis: 7113 km
RCS: 0.5789 m2 (medium)
Launch date: October 21, 2003
Source: People's Republic of China (PRC)
Launch site: Taiyaun Space Center, China (TSC)

Prototype of advanced telecommunications satellite for LEO.
aabbcc
Your satellite tracking list
Your tracking list is empty




NASA's NSSDC Master Catalog

Two Line Element Set (TLE):
1 28058U 03049B   19143.39562498  .00000005  00000-0  14103-4 0  9991
2 28058  98.7056 308.1347 0013808  57.5941 302.6584 14.46962174822797
Source of the keplerian elements: AFSPC